Location: ????
(30.1475°N, 31.1342°E)
Time: 02:08:37
(UTC+00:00)

ARIANE 5 R/B - Pass Details

Date: 30 March 2023
Orbit: 748 x 794 km, 98.8° (Epoch: 29 May)

Event Time Altitude Azimuth Distance (km) Brightness Sun altitude
Rises 02:17:17 0° 8° (N) 3,279 6.1 -20.0°
Reaches altitude 10° 02:19:37 10° 6° (N) 2,352 5.3 -19.6°
Maximum altitude 02:24:45 65° 285° (WNW) 871 2.5 -18.5°
Enters shadow 02:28:46 17° 207° (SSW) 1,915 4.2 -17.7°
